Weather in Berezivka

Ukraine / Zhytomyr Region     50°18′49″N   28°26′36″E
temp.,
°C
wind,
m/s
gust,
m/s
humid.,
%
clouds,
%
prec.,
mm/h
press.,
hPa
HPBL,
m
14 june, mon
mon1400:00+10wnw3795100 0.0 1011125
03:00+10nw389498 0.0 1011194
06:00+11nnw4896100 0.3 1012277
09:00+12n4897100 1.4 1013353
12:00+15nne678560 0.1 1014664
15:00+19n4677100 0.2 1014760
18:00+20ne457790 0.6 1014925
21:00+16n479133 1.7 1015118
15 june, tue
tue1500:00+14n410965 0.0 1016232
03:00+13n38965 0.0 1016150
06:00+13nnw36974 0.0 1017138
09:00+18n46842 0.0 1016389
12:00+22n447247 0.1 10161071
15:00+22nnw556988 0.8 10141322
18:00+22nnw46740 1.1 10141005
21:00+17nnw39920 1.7 1014200
16 june, wed
wed1600:00+14nnw410930 0.0 1014190
03:00+13nnw489399 0.0 1015149
06:00+12nnw499318 0.0 1015188
09:00+18n5879100 0.0 1016413
12:00+21nne567023 0.0 10161068
15:00+23nne576334 0.3 10161598
18:00+24ne48665 0.0 10161727
21:00+18nne612850 0.1 1017292
17 june, thu
thu1700:00+16nne411940 0.0 1018258
03:00+15nne4996100 0.0 1019198
06:00+14nne4109468 0.0 1019244
09:00+18nne68812 0.0 1020426
12:00+23ne67694 0.0 10201230
15:00+25ne68603 0.0 10201891
18:00+23ene58713 0.1 1020953
21:00+19ene410860 0.1 1021244
18 june, fri
fri1800:00+16ene39945 0.0 1022185
03:00+14ne49960 0.0 1022187
06:00+13ne389711 0.0 1022200
09:00+18ene69770 0.0 1022556
12:00+22ene68655 0.0 10221051
15:00+24e67590 0.0 10221390
18:00+23e57680 0.0 10221365
21:00+18e48860 0.0 1023170